RYR63XE LIRP-EPKK

Flight info

Callsign RYR63XE
Flight time 1h 23m
Altitude 37000
Route BEROK DCT OSBUL DCT MALUG DCT INGID DCT STO DCT LEDVA DCT NETIR
Aircraft B38M/M-SADE3FGIJ1LRWY/SB1

Departure

Time 2026-05-05 17:37
Airport Pisa International Airport (LIRP)

Arrival

Time 2026-05-05 19:00
Airport Kraków John Paul II International Airport (EPKK)
Time Latitude Longitude Altitude Speed Heading
2026-05-05 17:17 43.69745 10.40032 14 ft 0 kts
2026-05-05 17:28 43.69744 10.40031 14 ft 2 kts
2026-05-05 17:29 43.69720 10.40023 15 ft 4 kts 24°
2026-05-05 17:29 43.69698 10.40003 14 ft 4 kts 51°
2026-05-05 17:29 43.69688 10.39972 17 ft 4 kts 93°
2026-05-05 17:29 43.69689 10.39964 15 ft 1 kts 99°
2026-05-05 17:35 43.69685 10.39995 14 ft 9 kts 99°
2026-05-05 17:35 43.69642 10.40057 14 ft 11 kts 173°
2026-05-05 17:35 43.69560 10.40072 14 ft 13 kts 172°
2026-05-05 17:36 43.69462 10.40090 13 ft 15 kts 172°
2026-05-05 17:36 43.69363 10.40145 13 ft 16 kts 131°
2026-05-05 17:36 43.69294 10.40271 12 ft 18 kts 126°
2026-05-05 17:36 43.69236 10.40307 11 ft 9 kts 207°
2026-05-05 17:37 43.69102 10.40171 11 ft 54 kts 217°
2026-05-05 17:37 43.68599 10.39650 11 ft 121 kts 217°
2026-05-05 17:37 43.67800 10.38829 221 ft 152 kts 217°
2026-05-05 17:37 43.66929 10.37950 869 ft 158 kts 214°
2026-05-05 17:38 43.66029 10.37036 1539 ft 167 kts 215°
2026-05-05 17:38 43.65040 10.36008 2043 ft 188 kts 215°
2026-05-05 17:38 43.63952 10.34858 2658 ft 205 kts 221°
2026-05-05 17:38 43.63180 10.33183 3473 ft 214 kts 250°
2026-05-05 17:39 43.63098 10.31053 4082 ft 238 kts 283°
2026-05-05 17:39 43.64000 10.29070 4813 ft 259 kts 318°
2026-05-05 17:39 43.65707 10.28020 5514 ft 282 kts 349°
2026-05-05 17:39 43.67739 10.27882 6167 ft 304 kts
2026-05-05 17:40 43.69916 10.28196 6750 ft 325 kts
2026-05-05 17:40 43.72228 10.28542 7271 ft 346 kts
2026-05-05 17:40 43.74685 10.28905 7744 ft 365 kts
2026-05-05 17:40 43.77311 10.29291 8392 ft 376 kts
2026-05-05 17:41 43.79924 10.29680 9332 ft 380 kts
2026-05-05 17:41 43.82574 10.30074 10119 ft 386 kts
2026-05-05 17:41 43.85254 10.30472 10873 ft 390 kts
2026-05-05 17:41 43.87966 10.30876 11620 ft 394 kts
2026-05-05 17:42 43.90708 10.31286 12356 ft 398 kts
2026-05-05 17:42 43.93479 10.31700 13081 ft 402 kts
2026-05-05 17:42 43.96280 10.32119 13802 ft 406 kts
2026-05-05 17:42 43.99093 10.32541 14423 ft 411 kts
2026-05-05 17:43 44.01961 10.32972 15049 ft 415 kts
2026-05-05 17:43 44.04848 10.33406 15618 ft 420 kts
2026-05-05 17:43 44.07768 10.33844 16193 ft 424 kts
2026-05-05 17:43 44.10714 10.34287 16747 ft 428 kts
2026-05-05 17:44 44.13690 10.34737 17323 ft 431 kts
2026-05-05 17:44 44.16629 10.35713 17807 ft 442 kts 20°
2026-05-05 17:44 44.19366 10.37695 18399 ft 446 kts 28°
2026-05-05 17:44 44.22071 10.39874 18834 ft 451 kts 28°
2026-05-05 17:45 44.24784 10.42104 19359 ft 453 kts 29°
2026-05-05 17:45 44.27496 10.44365 19827 ft 456 kts 29°
2026-05-05 17:45 44.30218 10.46652 20264 ft 459 kts 30°
2026-05-05 17:45 44.33002 10.48997 20750 ft 462 kts 29°
2026-05-05 17:46 44.35761 10.51326 21178 ft 465 kts 30°
2026-05-05 17:46 44.38540 10.53675 21644 ft 468 kts 30°
2026-05-05 17:46 44.41334 10.56039 22076 ft 471 kts 30°
2026-05-05 17:46 44.44143 10.58419 22528 ft 474 kts 30°
2026-05-05 17:47 44.47020 10.60858 22971 ft 478 kts 30°
2026-05-05 17:47 44.49869 10.63278 23409 ft 481 kts 29°
2026-05-05 17:47 44.52741 10.65717 23784 ft 485 kts 29°
2026-05-05 17:47 44.55627 10.68173 24178 ft 487 kts 29°
2026-05-05 17:48 44.58543 10.70657 24568 ft 491 kts 29°
2026-05-05 17:48 44.61516 10.73194 24953 ft 494 kts 29°
2026-05-05 17:48 44.64447 10.75697 25328 ft 497 kts 29°
2026-05-05 17:48 44.67404 10.78226 25708 ft 499 kts 28°
2026-05-05 17:49 44.70380 10.80774 26074 ft 502 kts 28°
2026-05-05 17:49 44.73380 10.83345 26435 ft 505 kts 28°
2026-05-05 17:49 44.76383 10.85923 26794 ft 508 kts 28°
2026-05-05 17:49 44.79409 10.88523 27147 ft 511 kts 28°
2026-05-05 17:50 44.82455 10.91144 27504 ft 513 kts 28°
2026-05-05 17:50 44.85506 10.93773 27856 ft 516 kts 28°
2026-05-05 17:50 44.88564 10.96410 28280 ft 516 kts 28°
2026-05-05 17:50 44.91624 10.99053 28742 ft 515 kts 28°
2026-05-05 17:51 44.94713 11.01724 29209 ft 514 kts 28°
2026-05-05 17:51 44.97763 11.04364 29670 ft 513 kts 28°
2026-05-05 17:51 45.00799 11.06997 30100 ft 513 kts 28°
2026-05-05 17:51 45.03839 11.09635 30477 ft 512 kts 28°
2026-05-05 17:52 45.06862 11.12261 30828 ft 512 kts 28°
2026-05-05 17:52 45.08916 11.14049 31072 ft 512 kts 28°
2026-05-05 17:52 45.11988 11.16725 31438 ft 512 kts 28°
2026-05-05 17:52 45.15024 11.19372 31819 ft 511 kts 27°
2026-05-05 17:53 45.18048 11.22013 32202 ft 510 kts 27°
2026-05-05 17:53 45.21069 11.24653 32585 ft 510 kts 27°
2026-05-05 17:53 45.24083 11.27292 32956 ft 510 kts 27°
2026-05-05 17:53 45.27100 11.29937 33339 ft 509 kts 27°
2026-05-05 17:54 45.30106 11.32574 33729 ft 508 kts 27°
2026-05-05 17:54 45.33111 11.35215 34105 ft 507 kts 27°
2026-05-05 17:54 45.36100 11.37847 34441 ft 505 kts 27°
2026-05-05 17:54 45.39089 11.40481 34816 ft 503 kts 28°
2026-05-05 17:55 45.42092 11.43129 35214 ft 500 kts 28°
2026-05-05 17:55 45.45037 11.45730 35580 ft 498 kts 28°
2026-05-05 17:55 45.47983 11.48335 35925 ft 496 kts 28°
2026-05-05 17:55 45.50910 11.50926 36269 ft 494 kts 28°
2026-05-05 17:56 45.53828 11.53513 36577 ft 493 kts 29°
2026-05-05 17:56 45.56731 11.56089 36890 ft 491 kts 29°
2026-05-05 17:56 45.59634 11.58668 37040 ft 491 kts 29°
2026-05-05 17:57 45.65451 11.63847 37012 ft 488 kts 29°
2026-05-05 17:57 45.71219 11.68994 37012 ft 488 kts 30°
2026-05-05 17:58 45.76979 11.74147 37012 ft 488 kts 30°
2026-05-05 17:58 45.82727 11.79303 37012 ft 488 kts 30°
2026-05-05 17:59 45.88480 11.84474 37019 ft 488 kts 30°
2026-05-05 17:59 45.94256 11.89681 37025 ft 488 kts 30°
2026-05-05 18:00 46.00002 11.94872 36997 ft 487 kts 30°
2026-05-05 18:00 46.05781 12.00107 37002 ft 487 kts 30°
2026-05-05 18:01 46.11508 12.05309 37004 ft 487 kts 30°
2026-05-05 18:01 46.17236 12.10524 37023 ft 487 kts 31°
2026-05-05 18:02 46.22963 12.15750 37011 ft 487 kts 30°
2026-05-05 18:02 46.28689 12.20989 36993 ft 487 kts 30°
2026-05-05 18:03 46.34408 12.26234 36992 ft 487 kts 31°
2026-05-05 18:03 46.40164 12.31526 36980 ft 486 kts 31°
2026-05-05 18:04 46.45875 12.36791 37007 ft 486 kts 31°
2026-05-05 18:04 46.51572 12.42054 36995 ft 487 kts 30°
2026-05-05 18:05 46.57324 12.47381 37004 ft 487 kts 31°
2026-05-05 18:05 46.62996 12.52647 36986 ft 486 kts 31°
2026-05-05 18:06 46.68726 12.58003 36992 ft 487 kts 34°
2026-05-05 18:06 46.70483 12.60124 36964 ft 487 kts 46°
2026-05-05 18:06 46.73340 12.65178 36990 ft 489 kts 51°
2026-05-05 18:07 46.77554 12.72981 36968 ft 490 kts 52°
2026-05-05 18:07 46.81739 12.80931 36974 ft 490 kts 52°
2026-05-05 18:08 46.85873 12.88843 36962 ft 490 kts 52°
2026-05-05 18:08 46.90004 12.96772 36963 ft 490 kts 52°
2026-05-05 18:09 46.94123 13.04699 36943 ft 489 kts 52°
2026-05-05 18:09 46.98242 13.12649 36950 ft 489 kts 52°
2026-05-05 18:10 47.02333 13.20569 36931 ft 487 kts 52°
2026-05-05 18:10 47.06409 13.28481 36912 ft 485 kts 52°
2026-05-05 18:11 47.10455 13.36359 36911 ft 483 kts 52°
2026-05-05 18:11 47.14496 13.44249 36906 ft 483 kts 52°
2026-05-05 18:12 47.18547 13.52182 36897 ft 482 kts 52°
2026-05-05 18:12 47.22570 13.60082 36883 ft 482 kts 52°
2026-05-05 18:13 47.26583 13.67972 36887 ft 481 kts 52°
2026-05-05 18:13 47.30618 13.75834 36859 ft 481 kts 52°
2026-05-05 18:14 47.34643 13.83706 36839 ft 481 kts 52°
2026-05-05 18:14 47.38666 13.91595 36851 ft 482 kts 52°
2026-05-05 18:15 47.42708 13.99546 36853 ft 483 kts 52°
2026-05-05 18:15 47.46732 14.07484 36835 ft 483 kts 52°
2026-05-05 18:16 47.50081 14.14108 36827 ft 484 kts 52°
2026-05-05 18:16 47.54782 14.23435 36812 ft 483 kts 52°
2026-05-05 18:17 47.58798 14.31428 36797 ft 484 kts 52°
2026-05-05 18:17 47.62807 14.39427 36797 ft 483 kts 52°
2026-05-05 18:18 47.66157 14.46132 36795 ft 483 kts 52°
2026-05-05 18:18 47.70150 14.54144 36786 ft 483 kts 52°
2026-05-05 18:19 47.74131 14.62157 36786 ft 482 kts 52°
2026-05-05 18:19 47.78104 14.70175 36771 ft 482 kts 53°
2026-05-05 18:20 47.82064 14.78194 36774 ft 481 kts 53°
2026-05-05 18:20 47.86029 14.86243 36765 ft 481 kts 53°
2026-05-05 18:21 47.89978 14.94282 36759 ft 481 kts 53°
2026-05-05 18:21 47.93925 15.02344 36750 ft 481 kts 53°
2026-05-05 18:22 47.97861 15.10407 36751 ft 481 kts 53°
2026-05-05 18:22 48.01785 15.18467 36747 ft 480 kts 53°
2026-05-05 18:23 48.05713 15.26562 36736 ft 480 kts 53°
2026-05-05 18:23 48.09626 15.34649 36739 ft 480 kts 53°
2026-05-05 18:24 48.13528 15.42737 36725 ft 479 kts 53°
2026-05-05 18:24 48.17453 15.50896 36726 ft 479 kts 53°
2026-05-05 18:25 48.21336 15.58995 36721 ft 479 kts 53°
2026-05-05 18:25 48.25216 15.67108 36717 ft 478 kts 54°
2026-05-05 18:26 48.29083 15.75219 36720 ft 478 kts 54°
2026-05-05 18:26 48.32951 15.83355 36722 ft 478 kts 54°
2026-05-05 18:27 48.36809 15.91491 36719 ft 478 kts 54°
2026-05-05 18:27 48.40663 15.99640 36722 ft 478 kts 54°
2026-05-05 18:28 48.45905 16.12381 36729 ft 478 kts 58°
2026-05-05 18:28 48.49392 16.20904 36731 ft 478 kts 58°
2026-05-05 18:29 48.52903 16.29495 36740 ft 478 kts 58°
2026-05-05 18:29 48.56389 16.38052 36740 ft 479 kts 58°
2026-05-05 18:30 48.59872 16.46630 36750 ft 479 kts 58°
2026-05-05 18:30 48.63374 16.55284 36758 ft 480 kts 58°
2026-05-05 18:31 48.66852 16.63904 36764 ft 480 kts 58°
2026-05-05 18:31 48.70324 16.72536 36766 ft 480 kts 58°
2026-05-05 18:32 48.74011 16.81035 36775 ft 479 kts 51°
2026-05-05 18:32 48.78153 16.89047 36780 ft 479 kts 51°
2026-05-05 18:33 48.82272 16.96995 36782 ft 479 kts 51°
2026-05-05 18:33 48.86384 17.04946 36787 ft 479 kts 51°
2026-05-05 18:34 48.90490 17.12909 36795 ft 478 kts 51°
2026-05-05 18:34 48.94587 17.20879 36796 ft 478 kts 51°
2026-05-05 18:35 48.98700 17.28903 36801 ft 478 kts 51°
2026-05-05 18:35 49.02784 17.36895 36804 ft 478 kts 51°
2026-05-05 18:36 49.06851 17.44879 36802 ft 477 kts 51°
2026-05-05 18:36 49.10921 17.52892 36805 ft 477 kts 51°
2026-05-05 18:37 49.14978 17.60902 36807 ft 477 kts 51°
2026-05-05 18:37 49.19050 17.68968 36814 ft 476 kts 52°
2026-05-05 18:38 49.23087 17.76988 36817 ft 476 kts 52°
2026-05-05 18:38 49.27120 17.85023 36821 ft 476 kts 52°
2026-05-05 18:39 49.31145 17.93067 36819 ft 476 kts 52°
2026-05-05 18:39 49.35173 18.01140 35961 ft 472 kts 52°
2026-05-05 18:40 49.37174 18.05161 35016 ft 477 kts 52°
2026-05-05 18:40 49.39207 18.09251 34404 ft 474 kts 51°
2026-05-05 18:40 49.41216 18.13300 33409 ft 479 kts 51°
2026-05-05 18:40 49.43232 18.17371 32690 ft 476 kts 51°
2026-05-05 18:41 49.45235 18.21421 31985 ft 474 kts 51°
2026-05-05 18:41 49.47222 18.25444 31220 ft 474 kts 51°
2026-05-05 18:41 49.49218 18.29489 30378 ft 475 kts 51°
2026-05-05 18:41 49.51217 18.33549 29514 ft 476 kts 51°
2026-05-05 18:42 49.52539 18.36240 28859 ft 477 kts 52°
2026-05-05 18:42 49.54575 18.40383 27835 ft 479 kts 52°
2026-05-05 18:42 49.56558 18.44428 26838 ft 482 kts 52°
2026-05-05 18:42 49.58612 18.48623 25784 ft 485 kts 52°
2026-05-05 18:43 49.60644 18.52774 24822 ft 486 kts 52°
2026-05-05 18:43 49.62663 18.56907 24071 ft 483 kts 52°
2026-05-05 18:43 49.64685 18.61053 23392 ft 479 kts 52°
2026-05-05 18:43 49.66678 18.65148 22602 ft 475 kts 53°
2026-05-05 18:44 49.68650 18.69271 21854 ft 470 kts 56°
2026-05-05 18:44 49.70137 18.73704 21169 ft 463 kts 68°
2026-05-05 18:44 49.71341 18.78322 20442 ft 460 kts 68°
2026-05-05 18:44 49.72543 18.82861 19784 ft 454 kts 70°
2026-05-05 18:45 49.73651 18.87417 19162 ft 450 kts 71°
2026-05-05 18:45 49.74743 18.91889 18560 ft 446 kts 71°
2026-05-05 18:45 49.75838 18.96369 17965 ft 440 kts 71°
2026-05-05 18:45 49.76920 19.00796 17243 ft 437 kts 71°
2026-05-05 18:46 49.77984 19.05162 16592 ft 432 kts 71°
2026-05-05 18:46 49.79038 19.09491 15987 ft 428 kts 71°
2026-05-05 18:46 49.80078 19.13778 15355 ft 425 kts 71°
2026-05-05 18:46 49.81113 19.18044 14781 ft 420 kts 71°
2026-05-05 18:47 49.82135 19.22269 14197 ft 417 kts 71°
2026-05-05 18:47 49.83147 19.26463 13604 ft 414 kts 71°
2026-05-05 18:47 49.84163 19.30679 12996 ft 410 kts 71°
2026-05-05 18:47 49.85155 19.34803 12337 ft 409 kts 71°
2026-05-05 18:48 49.86141 19.38908 11775 ft 405 kts 71°
2026-05-05 18:48 49.87121 19.43000 11159 ft 403 kts 71°
2026-05-05 18:48 49.88090 19.47053 10563 ft 401 kts 72°
2026-05-05 18:48 49.89056 19.51098 10011 ft 399 kts 72°
2026-05-05 18:49 49.90016 19.55127 9396 ft 398 kts 72°
2026-05-05 18:49 49.90972 19.59145 8825 ft 395 kts 72°
2026-05-05 18:49 49.91917 19.63129 8213 ft 393 kts 72°
2026-05-05 18:49 49.92855 19.67082 7844 ft 386 kts 72°
2026-05-05 18:50 49.93769 19.70950 7568 ft 377 kts 72°
2026-05-05 18:50 49.94661 19.74727 7309 ft 367 kts 72°
2026-05-05 18:50 49.95525 19.78390 7115 ft 357 kts 72°
2026-05-05 18:50 49.96363 19.81951 7051 ft 343 kts 72°
2026-05-05 18:51 49.97164 19.85354 7050 ft 328 kts 72°
2026-05-05 18:51 49.97926 19.88607 7044 ft 313 kts 73°
2026-05-05 18:51 49.98651 19.91703 7043 ft 299 kts 73°
2026-05-05 18:51 49.99354 19.94709 7039 ft 285 kts 73°
2026-05-05 18:52 50.00028 19.97597 6721 ft 285 kts 73°
2026-05-05 18:52 50.00710 20.00524 6308 ft 290 kts 73°
2026-05-05 18:52 50.01399 20.03481 5872 ft 294 kts 73°
2026-05-05 18:52 50.02100 20.06490 5441 ft 298 kts 73°
2026-05-05 18:53 50.02805 20.09527 5116 ft 297 kts 73°
2026-05-05 18:53 50.03458 20.12512 5044 ft 284 kts 79°
2026-05-05 18:53 50.03943 20.15404 5034 ft 272 kts 69°
2026-05-05 18:53 50.05025 20.17727 5027 ft 262 kts 39°
2026-05-05 18:54 50.06608 20.18929 4932 ft 249 kts
2026-05-05 18:54 50.08263 20.18794 4800 ft 232 kts 338°
2026-05-05 18:54 50.09619 20.17635 4604 ft 215 kts 311°
2026-05-05 18:54 50.10472 20.15865 4447 ft 199 kts 287°
2026-05-05 18:55 50.10939 20.13863 4372 ft 196 kts 283°
2026-05-05 18:55 50.11391 20.11866 4285 ft 193 kts 283°
2026-05-05 18:55 50.11817 20.09958 4185 ft 178 kts 275°
2026-05-05 18:55 50.11747 20.08135 4041 ft 163 kts 254°
2026-05-05 18:56 50.11547 20.06424 3918 ft 163 kts 254°
2026-05-05 18:56 50.11331 20.04669 3763 ft 163 kts 254°
2026-05-05 18:56 50.11112 20.02937 3524 ft 163 kts 253°
2026-05-05 18:56 50.10888 20.01209 3295 ft 161 kts 253°
2026-05-05 18:57 50.10664 19.99510 3159 ft 159 kts 253°
2026-05-05 18:57 50.10440 19.97835 3034 ft 158 kts 253°
2026-05-05 18:57 50.10213 19.96155 2891 ft 159 kts 252°
2026-05-05 18:57 50.09983 19.94469 2710 ft 159 kts 252°
2026-05-05 18:58 50.09752 19.92781 2492 ft 160 kts 253°
2026-05-05 18:58 50.09519 19.91084 2310 ft 161 kts 253°
2026-05-05 18:58 50.09283 19.89375 2110 ft 160 kts 253°
2026-05-05 18:58 50.09058 19.87739 1880 ft 152 kts 254°
2026-05-05 18:59 50.08836 19.86159 1658 ft 147 kts 254°
2026-05-05 18:59 50.08616 19.84607 1436 ft 148 kts 255°
2026-05-05 18:59 50.08403 19.83023 1204 ft 149 kts 257°
2026-05-05 18:59 50.08187 19.81463 1003 ft 146 kts 257°
2026-05-05 19:00 50.07975 19.79933 837 ft 146 kts 257°
2026-05-05 19:00 50.07770 19.78470 804 ft 122 kts 258°
2026-05-05 19:00 50.07621 19.77393 802 ft 80 kts 257°
2026-05-05 19:00 50.07551 19.76898 805 ft 11 kts 249°
2026-05-05 19:01 50.07493 19.76848 804 ft 12 kts 175°
2026-05-05 19:01 50.07398 19.76872 802 ft 16 kts 169°
2026-05-05 19:01 50.07313 19.76932 802 ft 13 kts 109°
2026-05-05 19:01 50.07324 19.77082 802 ft 15 kts 77°
2026-05-05 19:02 50.07348 19.77253 802 ft 17 kts 78°
2026-05-05 19:02 50.07376 19.77452 802 ft 20 kts 78°
2026-05-05 19:02 50.07406 19.77673 802 ft 22 kts 78°
2026-05-05 19:02 50.07439 19.77913 802 ft 24 kts 78°
2026-05-05 19:03 50.07476 19.78173 802 ft 26 kts 78°
2026-05-05 19:03 50.07515 19.78452 802 ft 27 kts 78°
2026-05-05 19:03 50.07557 19.78751 802 ft 29 kts 78°
2026-05-05 19:03 50.07598 19.79056 802 ft 30 kts 78°
2026-05-05 19:04 50.07645 19.79386 802 ft 32 kts 77°
2026-05-05 19:04 50.07676 19.79661 802 ft 14 kts 113°
2026-05-05 19:04 50.07583 19.79721 802 ft 16 kts 168°
2026-05-05 19:04 50.07474 19.79757 802 ft 16 kts 168°
2026-05-05 19:05 50.07379 19.79805 802 ft 7 kts 134°
2026-05-05 19:05 50.07333 19.79848 802 ft 9 kts 167°
2026-05-05 19:05 50.07298 19.79859 802 ft 4 kts 168°
2026-05-05 19:05 50.07289 19.79862 802 ft 0 kts 167°